Regional Weather Roundup
Issued by NWS Kansas City/Pleasant Hill, MO

Home | Current Version | Previous Version | Text Only | Print | Product List | Glossary On
Versions: 1 2 3 4 5 6 7 8 9 10 11 12 13 14 15 16 17 18 19 20 21 22 23 24 25 26 27 28 29 30 31 32 33 34 35 36 37 38 39 40 41 42 43 44 45 46 47 48 49 50
000
ASUS43 KEAX 230604
RWREAX

WEATHER ROUNDUP FOR EASTERN KANSAS AND NORTHWEST MISSOURI
NATIONAL WEATHER SERVICE KANSAS CITY/PLEASANT HILL MO
100 AM CDT SAT MAY 23 2015

KSZ040-057-103>105-MOZ028-029-037-043-230700-
...KANSAS CITY METROPOLITAN AREA...

CITY           SKY/WX    TMP DP  RH WIND       PRES   REMARKS
K.C. INTL      CLOUDY    61  52  72 SE8       30.20F
6HR MIN TEMP:  58; 6HR MAX TEMP:  64;

K.C. DOWNTOWN  CLOUDY    64  50  60 SE8       30.20S
6HR MIN TEMP:  63; 6HR MAX TEMP:  65;

LEES SUMMIT    CLOUDY    61  52  72 SE6       30.21F
6HR MIN TEMP:  60; 6HR MAX TEMP:  62;

OLATHE - IXD   CLOUDY    60  52  74 SE10      30.20F
6HR MIN TEMP:  60; 6HR MAX TEMP:  62;

OLATHE - OJC   CLOUDY    60  54  80 SE8       30.19F
6HR MIN TEMP:  60; 6HR MAX TEMP:  62;

LAWRENCE       CLOUDY    60  53  77 SE7       30.19F

$$

MOZ001>008-011>017-020>025-030>033-038>040-044>046-053-054-230700-
...NORTHERN AND CENTRAL MISSOURI...

CITY           SKY/WX    TMP DP  RH WIND       PRES   REMARKS
ST. JOSEPH     CLOUDY    59  51  75 CALM      30.21S
6HR MIN TEMP:  59; 6HR MAX TEMP:  65;

MOSBY          CLOUDY    61  52  72 SE3       30.21S
WHITEMAN AFB   NOT AVBL
CLINTON        CLOUDY    63  55  77 CALM      30.23F
SEDALIA        CLOUDY    62  53  72 SE6       30.24S
6HR MIN TEMP:  62; 6HR MAX TEMP:  67; 6HR PCP: TRACE;

WARSAW         NOT AVBL
CHILLICOTHE      N/A     59  55  87 CALM      30.24R
6HR MIN TEMP:  58; 6HR MAX TEMP:  69;

KIRKSVILLE     PTCLDY    53  51  93 CALM      30.24S
6HR MIN TEMP:  53; 6HR MAX TEMP:  66;


$$

MOZ041-047>049-056>058-063>065-088>090-097-230700-
...EASTERN AND SOUTHERN MISSOURI...

CITY           SKY/WX    TMP DP  RH WIND       PRES   REMARKS
ST. LOUIS INTL CLOUDY    66  52  60 CALM      30.25S
6HR MIN TEMP:  65; 6HR MAX TEMP:  73;

SPIRIT OF STL  CLOUDY    59  58  96 CALM      30.24F
COLUMBIA       CLOUDY    62  52  69 SE5       30.24R
JEFFERSON CITY CLOUDY    62  56  80 SE3       30.24R
ROLLA          CLOUDY    60  52  74 S5        30.24R
OSAGE BEACH    CLOUDY    59  54  82 CALM      30.25R
SPRINGFIELD    CLOUDY    60  47  61 SE17      30.22S
BRANSON          N/A     55  50  82 CALM      30.25S
JOPLIN         CLOUDY    61  50  67 SE9       30.21R
WEST PLAINS    CLOUDY    58  50  75 E5        30.27R

$$

IAZ060-094-KSZ022-034>040-054-083-096-NEZ052-066-093-230700-
...KANSAS...SOUTHEAST NEBRASKA AND IOWA...

CITY           SKY/WX    TMP DP  RH WIND       PRES   REMARKS
TOPEKA         CLOUDY    61  52  72 SE7       30.19S
6HR MIN TEMP:  60; 6HR MAX TEMP:  62;

MANHATTAN      CLOUDY    58  50  75 E3        30.18S
EMPORIA        CLOUDY    57  53  86 SE6       30.17S
CHANUTE        CLOUDY    59  53  80 SE7       30.18S
WICHITA        CLOUDY    55  53  93 SE8       30.16S FOG
OMAHA          CLOUDY    59  49  69 S7        30.19F
LINCOLN        CLOUDY    59  45  59 S9        30.19R
FALLS CITY     MOCLDY    57  51  80 SE6       30.19S
LAMONI           N/A     60  52  74 SE6       30.22S
DES MOINES     MOCLDY    59  49  69 S5        30.22R

$$




USA.gov is the U.S. government's official web portal to all federal, state and local government web resources and services.